Regional Weather Roundup
Issued by NWS

Home | Current Version | Previous Version | Text Only | Print | Product List | Glossary Off
Versions: 1 2 3 4 5 6 7 8 9 10 11 12 13 14 15 16 17 18 19 20 21 22 23 24 25 26 27 28 29 30 31 32 33 34 35 36 37 38 39 40 41 42 43 44 45 46 47 48

000
ASUS45 KBOU 242207
RWRCO

WEATHER ROUNDUP FOR COLORADO
NATIONAL WEATHER SERVICE DENVER/BOULDER CO
300 PM MST SAT JAN 24 2015

NOTE: "FAIR" INDICATES FEW OR NO CLOUDS BELOW 12000 FEET WITH NO
SIGNIFICANT WEATHER AND/OR OBSTRUCTIONS TO VISIBILITY.

COZ001>005-013-030-031-242300-
...NORTHWEST COLORADO...

CITY           SKY/WX    TMP DP  RH WIND       PRES   REMARKS
CRAIG          CLOUDY    27  16  63 SW6       30.29F WCI  20
HAYDEN         CLOUDY    25  10  54 E5        30.29F WCI  19
MEEKER         CLOUDY    28  15  58 CALM      30.30F
MOUNT WERNER   NOT AVBL
STEAMBOAT SPGS CLOUDY    20  11  66 CALM      30.29S
WALDEN         CLOUDY    32  19  59 SE6       30.20F WCI  26
$$

COZ006>008-011-242300-
...WEST CENTRAL VALLEYS...

CITY           SKY/WX    TMP DP  RH WIND       PRES   REMARKS
GRAND JUNCTION CLOUDY    40   9  28 CALM      30.34R
MONTROSE       PTSUNNY   39  10  30 NW8       30.32R
EAGLE          MOSUNNY   28  12  50 CALM      30.35S
RIFLE          CLOUDY    36  11  35 SE3       30.33F
DELTA          PTSUNNY   42  11  27 W3        30.33R
NUCLA          PTSUNNY   43  12  28 NW5       30.32F
$$

COZ017>023-064>068-242300-
...SOUTHWEST COLORADO...

CITY           SKY/WX    TMP DP  RH WIND       PRES   REMARKS
DURANGO        NOT AVBL
CORTEZ         SUNNY     43  18  36 VRB3      30.26F
PAGOSA SPRINGS PTSUNNY   38  16  41 S3        30.25S
TELLURIDE      PTSUNNY   41   3  20 W6        30.30S
WOLF CREEK PAS NOT AVBL
$$

COZ009-010-012-014-032>034-037-058>063-242300-
...CENTRAL COLORADO...

CITY           SKY/WX    TMP DP  RH WIND       PRES   REMARKS
ASPEN          CLOUDY    32  13  45 NW5       30.29R WCI  27
BUENA VISTA    PTSUNNY   44  11  26 S9        30.13F
COPPER MTN     CLOUDY    27  12  54 W12G22    30.29S WCI  16
BERTHOUD PASS  CLOUDY    14   9  79 NW45G53   30.18S HAZE    WCI -10
COTTONWOOD PAS PTSUNNY   41   5  22 W22G33    30.17S
GUNNISON       CLOUDY     9 N/A N/A CALM      30.36S
KREMMLING      CLOUDY    16   5  62 CALM      30.32F
LEADVILLE      PTSUNNY   30  12  47 NW20G25   30.25R WCI  17
MONARCH PASS   CLOUDY    19   9  63 W45G56    30.31R HAZE    WCI  -3
SALIDA         PTSUNNY   46   9  22 SW17      30.20S
SUNLIGHT       CLOUDY    30  14  51 SW3       30.34R
WILKERSON PASS CLOUDY    30   9  40 CALM      30.21S
$$

COZ069>075-242300-
...SAN LUIS VALLEY/SANGRE DE CRISTO MOUNTAINS...

CITY           SKY/WX    TMP DP  RH WIND       PRES   REMARKS
ALAMOSA        CLOUDY    37   9  31 CALM      30.21F
LA VETA PASS   NOT AVBL
SAGUACHE       CLOUDY    23  10  58 CALM      30.24S
$$

COZ035-036-038>040-242300-
...NORTHERN COLORADO FRONT RANGE...

CITY           SKY/WX    TMP DP  RH WIND       PRES   REMARKS
DENVER INTL AP CLOUDY    52  18  26 W16       29.99R
DMNS CITY PARK   N/A     52  17  25 W15G25    30.00R
AURORA         CLOUDY    50  19  28 NW17G24   30.00R
FRONT RANGE AP NOT AVBL
ERIE MUNI ARPT CLOUDY    53  15  21 W14       30.00R
BOULDER MUN AP CLOUDY    52  18  25 W24       29.99F
CENTENNIAL     CLOUDY    50  19  29 NW9       30.01R
BROOMFIELD     CLOUDY    50  18  27 W23G30    30.01R
FORT COLLINS   CLOUDY    46  23  39 S6        29.98F
LONGMONT       CLOUDY    56  17  22 W8G17     30.01R
$$

COZ041-046-047-076>085-087-088-242300-
...PIKES PEAK/PALMER DIVIDE AND SOUTHERN FOOTHILLS...

CITY           SKY/WX    TMP DP  RH WIND       PRES   REMARKS
COLO. SPRINGS  CLOUDY    53  15  22 NW9       30.00R
A. F. ACADEMY  CLOUDY    48  19  31 N10       30.00R
ELLICOTT       CLOUDY   N/A N/A N/A MISG      29.98R
FALCON         CLOUDY    47  18  31 CALM      30.02S
FORT CARSON    CLOUDY    48  26  42 NE6       29.97R
LIMON          CLOUDY    51  17  26 NW17      29.98R
MONUMENT HILL  CLOUDY    41  19  42 NW10      30.03R
TRINIDAD       PTSUNNY   50  34  54 E3        29.98F
$$

COZ042>045-048>051-090-091-242300-
...NORTHEAST COLORADO...

CITY           SKY/WX    TMP DP  RH WIND       PRES   REMARKS
GREELEY ARPT   CLOUDY    45  25  45 CALM      29.96R
AKRON          CLOUDY    41  29  62 W9        29.94S
BURLINGTON     CLOUDY    52  23  32 N13       29.94R
WRAY           LGT RAIN  45  33  63 W9        29.93R
STERLING       CLOUDY    50  32  50 NW17      29.91F
HOLYOKE        CLOUDY    45  34  65 W9        29.90F
FORT MORGAN    CLOUDY    45  24  42 NW5       29.96S
$$

COZ086-089-092>099-242300-
...SOUTHEAST COLORADO...

CITY           SKY/WX    TMP DP  RH WIND       PRES   REMARKS
PUEBLO         CLOUDY    53  23  31 NW16      29.93S
LA JUNTA       CLOUDY    53  28  38 W5        29.92F
LAMAR          PTSUNNY   51  31  46 W9        29.92F
SPRINGFIELD      N/A     55  25  31 NW17      29.92F
$$


USA.gov is the U.S. government's official web portal to all federal, state and local government web resources and services.